カタログに戻る

COSMOS 2251 DEB

運用中VLEO
NORAD 35073·DEBRIS·🇷🇺 Russia

打ち上げ Jun 16, 1993 から Plesetsk Cosmodrome

Loading…

次のパス (今後24時間)

TLE

経年Source: Space-Track

元期: Sep 11, 2026, 07:28 UTC

1 35073U 93036AJC 26254.31123493  .00055463  00000-0  19833-2 0  9993
2 35073  73.9811 122.4261 0018477 169.7050 190.4534 15.28377249716055

AllMySatでCOSMOS 2251 DEBをリアルタイム追跡

Download on the App Store